Location: TAAA CAC
(31.8680°N, 109.5150°W)
Time: 23:55:52
(UTC-07:00)

Hubble Space Telescope - Pass Details

Date: 25 February 2024
Orbit: 513 x 517 km, 28.5° (Epoch: 21 April)

Event Time Altitude Azimuth Distance (km) Brightness Sun altitude
Rises 20:24:13 0° 258° (WSW) 2,635 5.4 -28.7°
Reaches altitude 10° 20:26:30 10° 253° (WSW) 1,747 4.1 -29.1°
Enters shadow 20:28:15 24° 244° (WSW) 1,116 2.8 -29.5°
